Weather History for Williamtown, NW

Change the Weather History Date:

Friday, January 17, 2014

  Actual Average Record
Temperature  
Mean Temperature 76 °F -  
Max Temperature 89 °F - - ()
Min Temperature 63 °F - - ()
Cooling Degree Days 11    
Growing Degree Days 26 (Base 50)    
Moisture  
Dew Point 63 °F    
Average Humidity 62    
Maximum Humidity 94    
Minimum Humidity 32    
Precipitation  
Precipitation 0.00 in - - ()
Sea Level Pressure  
Sea Level Pressure 29.96 in    
Wind  
Wind Speed 8 mph ()    
Max Wind Speed 23 mph    
Max Gust Speed 34 mph    
Visibility 6.2 miles    
Events      
T = Trace of Precipitation, MM = Missing Value Source: Averaged Metar Reports

Daily Weather History Graph

Daily Weather History Graph

Search for Another Location

Airport:

Trip Planner

Search our weather history database for the weather conditions in past years. The results will help you decide how hot, cold, wet, or windy it might be!

Date:

Astronomy

Jan. 17, 2014 Rise Set
Actual Time 6:01 AM AEDT 8:03 PM AEDT
Civil Twilight 5:33 AM AEDT 8:31 PM AEDT
Nautical Twilight 4:59 AM AEDT 9:04 PM AEDT
Astronomical Twilight 4:23 AM AEDT 9:40 PM AEDT
Moon 8:24 PM AEDT (1/17) 6:46 AM AEDT (1/17)
Length of Visible Light 14h 57m
Length of Day
14h 02m
Full, 99% of the Moon is Illuminated
Jan 17
Full
Jan 24
Last Quarter
Jan 31
New
Feb 7
First Quarter
Feb 15
Full

Hourly Weather History & Observations

Time (AEDT) Temp. Heat Index Dew Point Humidity Pressure Visibility Wind Dir Wind Speed Gust Speed Precip Events Conditions
12:00 AM 72 °F - 64 °F 71% 30.02 in - NE 6.9 mph - -  
12:00 AM 71.6 °F - 64.4 °F 78% 30.01 in 6.2 mi NE 6.9 mph - N/A   Unknown
12:30 AM 71.6 °F - 64.4 °F 78% 30.01 in 6.2 mi ENE 5.8 mph - N/A   Unknown
1:00 AM 71.6 °F - 66.2 °F 83% 30.01 in 6.2 mi ENE 6.9 mph - N/A   Unknown
1:30 AM 69.8 °F - 66.2 °F 88% 30.01 in 6.2 mi ENE 3.5 mph - N/A   Unknown
2:00 AM 70 °F - 66 °F 82% 30.01 in - ENE 5.8 mph - -  
2:00 AM 69.8 °F - 66.2 °F 88% 30.01 in 6.2 mi ENE 5.8 mph - N/A   Unknown
2:30 AM 69.8 °F - 64.4 °F 83% 30.01 in 6.2 mi NE 6.9 mph - N/A   Unknown
3:00 AM 70 °F - 65 °F 79% 30.00 in - ENE 8.1 mph - -  
3:00 AM 69.8 °F - 64.4 °F 83% 29.98 in 6.2 mi ENE 8.1 mph - N/A   Unknown
3:30 AM 69.8 °F - 64.4 °F 83% 29.98 in 6.2 mi NE 9.2 mph - N/A   Unknown
4:00 AM 69.8 °F - 64.4 °F 83% 29.98 in 6.2 mi NNE 4.6 mph - N/A   Unknown
4:30 AM 69.8 °F - 64.4 °F 83% 29.98 in 6.2 mi NE 11.5 mph - N/A   Unknown
5:00 AM 69 °F - 65 °F 81% 29.99 in - NE 5.8 mph - -  
5:00 AM 69.8 °F - 64.4 °F 83% 29.98 in 6.2 mi NE 5.8 mph - N/A   Unknown
5:30 AM 68.0 °F - 64.4 °F 88% 30.01 in 6.2 mi Calm Calm - N/A   Unknown
6:00 AM 64 °F - 62 °F 91% 30.01 in - Calm Calm - -  
6:00 AM 64.4 °F - 62.6 °F 94% 30.01 in - Calm Calm - N/A   Clear
6:30 AM 64.4 °F - 62.6 °F 94% 30.01 in - Calm Calm - N/A   Clear
7:00 AM 68.0 °F - 64.4 °F 88% 30.01 in - Calm Calm - N/A   Clear
7:30 AM 71.6 °F - 64.4 °F 78% 30.01 in - NE 6.9 mph - N/A   Clear
8:00 AM 74 °F - 65 °F 65% 30.03 in - NNE 5.8 mph - -  
8:00 AM 73.4 °F - 64.4 °F 73% 30.01 in 6.2 mi NNE 5.8 mph - N/A   Partly Cloudy
8:30 AM 75.2 °F - 64.4 °F 69% 30.01 in 6.2 mi North 6.9 mph - N/A   Partly Cloudy
9:00 AM 76 °F - 63 °F 55% 30.02 in - NNE 9.2 mph - -  
9:00 AM 77.0 °F - 62.6 °F 61% 30.01 in - NNE 9.2 mph - N/A   Clear
9:30 AM 78.8 °F - 62.6 °F 57% 30.01 in - NNE 8.1 mph - N/A   Clear
10:00 AM 80.6 °F 81.8 °F 62.6 °F 54% 30.01 in 6.2 mi NE 6.9 mph - N/A   Unknown
10:30 AM 80.6 °F 81.8 °F 62.6 °F 54% 30.01 in - NE 5.8 mph - N/A   Clear
11:00 AM 85 °F - 64 °F 39% 30.00 in - East 4.6 mph - -  
11:00 AM 86.0 °F 87.3 °F 64.4 °F 48% 29.98 in - East 4.6 mph - N/A   Clear
11:30 AM 84.2 °F 85.0 °F 62.6 °F 48% 29.98 in - NNW 5.8 mph - N/A   Clear
12:00 PM 86 °F - 61 °F 33% 29.99 in - NNE 5.8 mph - -  
12:00 PM 86.0 °F 86.1 °F 60.8 °F 43% 29.98 in - NNE 5.8 mph - N/A   Clear
12:30 PM 87.8 °F 86.1 °F 55.4 °F 33% 29.95 in - NE 10.4 mph - N/A   Clear
1:00 PM 89.6 °F 89.5 °F 60.8 °F 38% 29.95 in - East 11.5 mph - N/A   Clear
1:30 PM 87.8 °F 87.6 °F 60.8 °F 40% 29.95 in - East 13.8 mph - N/A   Clear
2:00 PM 89 °F - 63 °F 32% 29.94 in - ESE 16.1 mph - -  
2:00 PM 89.6 °F 90.1 °F 62.6 °F 40% 29.92 in - ESE 16.1 mph - N/A   Clear
2:30 PM 87.8 °F 88.5 °F 62.6 °F 43% 29.92 in - East 17.3 mph - N/A   Clear
3:00 PM 89 °F - 64 °F 33% 29.93 in - ESE 17.3 mph - -  
3:00 PM 87.8 °F 89.4 °F 64.4 °F 46% 29.92 in - ESE 17.3 mph - N/A   Clear
3:30 PM 87.8 °F 87.6 °F 60.8 °F 40% 29.92 in - ENE 17.3 mph - N/A   Clear
4:00 PM 86.0 °F 86.1 °F 60.8 °F 43% 29.89 in - ENE 20.7 mph - N/A   Clear
4:28 PM 86.0 °F 86.1 °F 60.8 °F 43% 29.89 in 6.2 mi East 23.0 mph 34.5 mph N/A   Unknown
4:30 PM 86.0 °F 86.6 °F 62.6 °F 45% 29.89 in 6.2 mi East 23.0 mph 34.5 mph N/A   Unknown
4:59 PM 82.4 °F 83.4 °F 62.6 °F 51% 29.89 in 6.2 mi ENE 19.6 mph 31.1 mph N/A   Unknown
5:00 PM 83 °F - 62 °F 39% 29.90 in - ENE 19.6 mph - -  
5:00 PM 82.4 °F 83.4 °F 62.6 °F 51% 29.89 in 6.2 mi ENE 19.6 mph 31.1 mph N/A   Unknown
5:35 PM 82.4 °F 83.4 °F 62.6 °F 51% 29.89 in 6.2 mi ENE 19.6 mph 31.1 mph N/A   Unknown
6:00 PM 81 °F - 63 °F 45% 29.90 in - ENE 17.3 mph - -  
6:00 PM 80.6 °F 81.8 °F 62.6 °F 54% 29.89 in 6.2 mi ENE 17.3 mph - N/A   Unknown
6:30 PM 80.6 °F 82.3 °F 64.4 °F 58% 29.89 in 6.2 mi ENE 18.4 mph - N/A   Unknown
7:00 PM 80.6 °F 81.5 °F 60.8 °F 51% 29.89 in 6.2 mi ENE 13.8 mph - N/A   Unknown
7:30 PM 78.8 °F - 62.6 °F 57% 29.89 in 6.2 mi ENE 13.8 mph - N/A   Unknown
8:00 PM 77 °F - 63 °F 52% 29.92 in - ENE 11.5 mph - -  
8:00 PM 77.0 °F - 62.6 °F 61% 29.92 in 6.2 mi ENE 11.5 mph - N/A   Unknown
8:30 PM 75.2 °F - 62.6 °F 65% 29.92 in 6.2 mi NE 12.7 mph - N/A   Unknown
9:00 PM 75 °F - 63 °F 58% 29.93 in - NE 11.5 mph - -  
9:00 PM 75.2 °F - 62.6 °F 65% 29.92 in 6.2 mi NE 11.5 mph - N/A   Unknown
9:30 PM 73.4 °F - 62.6 °F 69% 29.92 in 6.2 mi NE 10.4 mph - N/A   Unknown
10:00 PM 73.4 °F - 62.6 °F 69% 29.92 in 6.2 mi NE 9.2 mph - N/A   Unknown
10:30 PM 73.4 °F - 62.6 °F 69% 29.92 in 6.2 mi NE 12.7 mph - N/A   Unknown
11:00 PM 73 °F - 63 °F 62% 29.94 in - NE 10.4 mph - -  
11:00 PM 73.4 °F - 62.6 °F 69% 29.92 in 6.2 mi NE 10.4 mph - N/A   Unknown
11:30 PM 73.4 °F - 62.6 °F 69% 29.92 in 6.2 mi NNE 10.4 mph - N/A   Unknown